#timestamp,LO_Frequency,Hit,StdDev 
1620726415.7,286046918.4,P
1620726435.6,286046918.9,P
1620726455.4,286046919.4,P
1620726475.3,286046915.3,Y
1620726495.1,286046996.9,P
1620726496.0,286046996.9,N
1620726515.8,286046997.1,N
1620726535.7,286046997.2,N
1620726555.5,286046997.6,N
1620726575.4,286046997.6,N
1620726595.2,286046995.4,N
1620726615.0,286046995.4,N
1620726615.9,286046995.4,N
1620726635.8,286046996.3,N
1620726655.6,286046993.8,N
1620726675.4,286046992.1,N
1620726695.3,286046991.8,N
1620726715.1,286046994.3,N
1620726735.9,286046992.1,N
1620726755.7,286046993.1,N
1620726775.5,286046990.4,N
1620726795.4,286046990.1,N
1620726815.2,286046990.4,N
1620726835.0,286046989.1,N
1620726835.9,286046989.1,N
1620726855.8,286046988.7,N
1620726875.6,286046987.3,N
1620726895.5,286046987.4,N
1620726915.3,286046988.1,N
1620726935.1,286046988.1,N
1620726955.9,286046989.8,N
1620726975.7,286046989.9,N
1620726995.5,286046988.1,N
1620727015.4,286046988.4,N
1620727035.2,286046985.8,Y
1620727055.1,286046994.5,P
1620727056.0,286046994.5,P
1620727075.8,286046991.7,P
1620727095.6,286046994.4,Y
1620727115.5,286046998.3,P
1620727135.3,286046999.4,N
1620727155.1,286046996.9,N
1620727175.9,286046996.9,N
1620727195.7,286046997.5,N
